This is the latest recevied weather packets stored in our database for station/object AC2JK-WX. If no packets are shown the sender has not sent any weather packets the latest 10 day(s).
| Time | Temp. | Humidity | Pressure | Rain* | Wind** | Luminosity | Snow |
|---|---|---|---|---|---|---|---|
| 1787433430 | 27.22° C | 56% | 1010 hPa | 0 mm | - | - | - |
| 1787433130 | 27.22° C | 56% | 1010 hPa | 0 mm | - | - | - |
| 1787432829 | 27.78° C | 53% | 1010 hPa | 0 mm | - | - | - |
| 1787432530 | 27.78° C | 53% | 1010 hPa | 0 mm | - | - | - |
| 1787432230 | 27.78° C | 51% | 1010 hPa | 0 mm | - | - | - |
| 1787431929 | 27.78° C | 51% | 1010 hPa | 0 mm | - | - | - |
| 1787431629 | 28.33° C | 51% | 1010 hPa | 0 mm | - | - | - |
| 1787431329 | 28.33° C | 49% | 1010 hPa | 0 mm | - | - | - |
| 1787431030 | 28.33° C | 49% | 1010 hPa | 0 mm | - | - | - |
| 1787430731 | 28.33° C | 49% | 1010 hPa | 0 mm | - | - | - |
| 1787430431 | 28.33° C | 49% | 1011 hPa | 0 mm | - | - | - |
| 1787430130 | 28.33° C | 48% | 1011 hPa | 0 mm | - | - | - |
| 1787429829 | 28.89° C | 49% | 1011 hPa | 0 mm | - | - | - |
| 1787429529 | 28.89° C | 49% | 1011 hPa | 0 mm | - | - | - |
| 1787429229 | 28.89° C | 48% | 1011 hPa | 1.02 mm | - | - | - |
| 1787428929 | 28.89° C | 48% | 1011 hPa | 1.02 mm | - | - | - |
| 1787428629 | 28.89° C | 47% | 1011 hPa | 1.02 mm | - | - | - |
| 1787428331 | 28.89° C | 46% | 1011 hPa | 1.02 mm | - | - | - |
| 1787428029 | 28.89° C | 46% | 1011 hPa | 1.02 mm | - | - | - |
| 1787427730 | 29.44° C | 45% | 1011 hPa | 1.02 mm | - | - | - |
| 1787427431 | 30° C | 45% | 1012 hPa | 1.02 mm | - | - | - |
| 1787427130 | 30.56° C | 43% | 1012 hPa | 1.02 mm | - | - | - |
| 1787426829 | 30.56° C | 44% | 1012 hPa | 1.02 mm | - | - | - |
| 1787426529 | 30.56° C | 46% | 1012 hPa | 1.02 mm | - | - | - |
| 1787426233 | 30° C | 46% | 1012 hPa | 1.02 mm | - | - | - |
* Rain latest hour (hover to see other rain measurements)
** Current wind speed in m/s (hover to see current wind gust speed)